This demonstration page uses our WeatherBlox Daily Observations layout. Learn more.

Left ArrowRight Arrow

Hourly Observations for May 8, 2015

Temp ( °F °C ) Dew Point ( °F °C ) Humidity (%) Winds ( mph kmh ) Pressure ( in mb ) Visibility ( mi km ) Precip ( " mm )
12:53 am 00:53 Clear 62 16.7 59 15 90 90 Calm 30.03 1017 8 13 0.00 0.00
1:53 am 01:53 Clear 61 16.1 59 15 93 93 Calm 30.04 1017 8 13 0.00 0.00
2:53 am 02:53 Clear with Mist and Fog 60 15.6 58 14.4 93 93 Calm 30.04 1017 6 10 0.00 0.00
3:53 am 03:53 Clear with Mist and Fog 59 15 57 13.9 93 93 Calm 30.05 1018 5 8 0.00 0.00
4:53 am 04:53 Clear with Mist and Fog 58 14.4 56 13.3 93 93 Calm 30.04 1017 5 8 0.00 0.00
5:53 am 05:53 Clear with Mist and Fog 57 13.9 56 13.3 96 96 Calm 30.05 1018 4 6 0.00 0.00
6:29 am 06:29 Clear with Mist and Fog 57 13.9 56 13.3 96 96 Calm 30.06 1018 2 3 0.00 0.00
6:40 am 06:40 Sunny with Mist and Fog 57 13.9 55 12.8 93 93 Calm 30.06 1018 3 5 0.00 0.00
6:53 am 06:53 Sunny with Mist and Fog 58 14.4 56 13.3 93 93 Calm 30.07 1018 3 5 0.00 0.00
7:53 am 07:53 Sunny with Mist and Fog 64 17.8 61 16.1 90 90 Calm 30.09 1019 4 6 0.00 0.00
8:53 am 08:53 Hazy 69 20.6 63 17.2 81 81 Calm 30.09 1019 5 8 0.00 0.00
9:53 am 09:53 Sunny 77 25 62 16.7 60 60 Calm 30.09 1019 8 13 0.00 0.00
10:53 am 10:53 Sunny 82 27.8 58 14.4 44 44 SSW 8 13 30.08 1019 10 16 0.00 0.00
11:53 am 11:53 Sunny 85 29.4 55 12.8 36 36 W 8 13 30.07 1018 10 16 0.00 0.00
12:53 pm 12:53 Sunny 86 30 55 12.8 35 35 VRB 7 11 30.06 1018 10 16 0.00 0.00
1:53 pm 13:53 Sunny 87 30.6 54 12.2 32 32 SSW 8 13 30.04 1017 10 16 0.00 0.00
2:53 pm 14:53 Sunny 87 30.6 52 11.1 30 30 SSW 13 20 30.02 1017 10 16 0.00 0.00
3:53 pm 15:53 Sunny 89 31.7 53 11.7 29 29 SSW 12 19 30.01 1016 10 16 0.00 0.00
4:53 pm 16:53 Sunny 88 31.1 53 11.7 30 30 VRB 6 9 29.98 1015 10 16 0.00 0.00
5:53 pm 17:53 Sunny 86 30 54 12.2 33 33 SW 9 15 29.99 1016 10 16 0.00 0.00
6:53 pm 18:53 Sunny 86 30 54 12.2 33 33 SW 7 11 29.99 1016 10 16 0.00 0.00
7:53 pm 19:53 Sunny 82 27.8 53 11.7 37 37 SSW 5 7 29.99 1016 10 16 0.00 0.00
8:53 pm 20:53 Clear 70 21.1 59 15 68 68 Calm 30.00 1016 10 16 0.00 0.00
9:53 pm 21:53 Clear 68 20 58 14.4 70 70 Calm 30.01 1016 10 16 0.00 0.00
10:53 pm 22:53 Clear 66 18.9 58 14.4 75 75 Calm 30.02 1017 10 16 0.00 0.00
11:53 pm 23:53 Clear 64 17.8 56 13.3 75 75 Calm 30.02 1017 10 16 0.00 0.00

Powered by AerisWeather